Regional Weather Roundup
Issued by NWS

Home | Current Version | Previous Version | Text Only | Print | Product List | Glossary Off
Versions: 1 2 3 4 5 6 7 8 9 10 11 12 13 14 15 16 17 18 19 20 21 22 23 24 25 26 27 28 29 30 31 32 33 34 35 36 37 38 39 40 41 42 43 44 45 46 47 48 49 50

000
ASUS43 KIND 262010
RWRIN

WEATHER ROUNDUP FOR INDIANA
NATIONAL WEATHER SERVICE INDIANAPOLIS IN
400 PM EDT TUE SEP 26 2017

NOTE: "FAIR" INDICATES FEW OR NO CLOUDS BELOW 12,000 FEET WITH NO
SIGNIFICANT WEATHER AND/OR OBSTRUCTIONS TO VISIBILITY.

* - STATION DOES NOT REPORT WEATHER SUCH AS PRECIPITATION OR FOG.

+ - STATION NOT QUALITY CONTROLLED BY THE NATIONAL WEATHER SERVICE.
    USE DATA WITH CAUTION...ESPECIALLY DEWPOINT AND RELATIVE
    HUMIDITY OBSERVATIONS.

INZ001>003-010>013-019-020-262100-
NORTHWEST INDIANA

CITY           SKY/WX    TMP DP  RH WIND       PRES   REMARKS
GARY /AIRPORT/ MOSUNNY   91  54  27 SW9       29.92F
KNOX *+        MOSUNNY   90  61  37 SW10      29.94F
LA PORTE +     MOSUNNY   89  62  40 SW8       29.95F
MICHIGAN CITY+ SUNNY     90  61  37 SW10      29.94
MONTICELLO +   MOSUNNY  N/A N/A N/A SW8       29.95
RENSSELAER +   MOSUNNY   90  45  20 S8        29.94
VALPARAISO     MOSUNNY   91  62  37 SW9       29.94F

$$

LMZ046-743>745-262100-
SOUTHERN LAKE MICHIGAN

STATION/POSITION TIME  TEMP    WIND        PRES    WAVE
                       AIR SEA DIR/SP/G            HT
                 (UTC) (F)     (DEG/KT/KT) (MB)    (FT)
BURNS HARBOR     1940   85     230/ 12/ 19 1013.5F
MICHIGAN CITY    1940   86     210/ 10/ 12   N/A
5NW MICH CITY    2000   81 74  240/  6/  8   N/A     1

$$

INZ004-005-014>016-021>024-262100-
NORTH CENTRAL INDIANA

CITY           SKY/WX    TMP DP  RH WIND       PRES   REMARKS
ELKHART        MOSUNNY   90  63  40 W12       29.95F
GOSHEN         MOSUNNY   89  60  37 CALM      29.95F
LOGANSPORT +   MOSUNNY   88  61  40 SW3       29.96F
SOUTH BEND     MOSUNNY   88  62  41 SW7       29.95F
WARSAW +       PTSUNNY   86  64  48 CALM      29.96F

$$

INZ006>009-017-018-025>027-262100-
NORTHEAST INDIANA

CITY           SKY/WX    TMP DP  RH WIND       PRES   REMARKS
AUBURN +       SUNNY     88  59  37 SW7       29.97F
FORT WAYNE     MOSUNNY   86  62  44 SW5       29.97F
HUNTINGTON +   PTSUNNY   89  60  36 S3        29.96F
KENDALLVILLE + SUNNY     88  63  43 SW10      29.98

$$

INZ028-029-035-036-043>045-051>053-262100-
WEST CENTRAL INDIANA

CITY           SKY/WX    TMP DP  RH WIND       PRES   REMARKS
GREENCASTLE +  MOSUNNY   88  61  40 CALM      29.97
LAFAYETTE      NOT AVBL
TERRE HAUTE    SUNNY     90  60  36 S8        29.95F

$$

INZ030>032-037>040-046>048-054>057-064-065-262100-
CENTRAL INDIANA

CITY           SKY/WX    TMP DP  RH WIND       PRES   REMARKS
ANDERSON       SUNNY     88  61  40 CALM      29.99
CP ATTERBURY + SUNNY     88  61  40 CALM      29.97F
COLUMBUS       MOSUNNY   88  54  31 S6        29.97F
FISHERS *+     SUNNY     90  66  45 S6        29.96F
FRANKFORT +    CLOUDY    91  64  40 SW7       29.98F
GREENWOOD *+   MOSUNNY   91  62  37 S6        29.98F
INDIANAPOLIS   MOSUNNY   90  60  36 SW7       29.96F
-EAGLE CREEK   MOSUNNY   89  61  38 S6        29.96F
KOKOMO +       MOSUNNY   88  65  46 S3        29.98F
MARION +       PTSUNNY   90  61  37 W6        29.97F
MT COMFORT *+  SUNNY     90  61  37 SW6       29.98F
SHELBYVILLE    MOSUNNY   90  61  37 CALM      29.96F
ZIONSVILLE +   PTSUNNY   87  64  45 SW6       29.98F

$$

INZ033-034-041-042-049-050-058-059-262100-
EAST CENTRAL INDIANA

CITY           SKY/WX    TMP DP  RH WIND       PRES   REMARKS
MUNCIE         SUNNY     90  61  37 S6        29.97F
RICHMOND +     SUNNY     86  57  37 W5        30.00

$$

INZ060-061-067>069-081>083-085>088-262100-
SOUTHWEST INDIANA

CITY           SKY/WX    TMP DP  RH WIND       PRES   REMARKS
EVANSVILLE     MOSUNNY   91  61  36 VRB3      29.95F
HUNTINGBURG +  SUNNY     89  65  44 CALM      29.96F
WASHINGTON +   SUNNY     91  56  30 SW5       29.95F

$$

INZ062-063-066-070>080-084-089>092-262100-
SOUTH CENTRAL AND SOUTHEAST INDIANA

CITY           SKY/WX    TMP DP  RH WIND       PRES   REMARKS
BEDFORD +      MOSUNNY   90  59  35 W5        29.96F
BLOOMINGTON    MOSUNNY   88  60  38 S5        29.97F
MADISON *+     SUNNY     88  52  29 SE3       30.00F
NORTH VERNON + SUNNY     88  59  37 SE3       29.98F
SEYMOUR +      SUNNY     91  61  35 S3        29.96F

$$





USA.gov is the U.S. government's official web portal to all federal, state and local government web resources and services.